This is the latest recevied weather packets stored in our database for station/object N7WSS. If no packets are shown the sender has not sent any weather packets the latest 10 day(s).
| Time | Temp. | Humidity | Pressure | Rain* | Wind** | Luminosity | Snow |
|---|---|---|---|---|---|---|---|
| 1787692759 | 41.11° C | 22% | 1012.6 hPa | 0 mm | - | - | - |
| 1787692455 | 41.67° C | 23% | 1012.6 hPa | 0 mm | - | - | - |
| 1787692154 | 40.56° C | 24% | 1012.8 hPa | 0 mm | - | - | - |
| 1787691854 | 40.56° C | 23% | 1012.8 hPa | 0 mm | - | - | - |
| 1787691552 | 40° C | 23% | 1012.9 hPa | 0 mm | - | - | - |
| 1787691252 | 40° C | 24% | 1013 hPa | 0 mm | - | - | - |
| 1787690947 | 40.56° C | 24% | 1012.9 hPa | 0 mm | - | - | - |
| 1787690641 | 40.56° C | 23% | 1013.2 hPa | 0 mm | - | - | - |
| 1787690336 | 40.56° C | 23% | 1013.2 hPa | 0 mm | - | - | - |
| 1787690033 | 40.56° C | 24% | 1013.5 hPa | 0 mm | - | - | - |
| 1787689729 | 40° C | 23% | 1013.3 hPa | 0 mm | - | - | - |
| 1787689423 | 40° C | 24% | 1013.3 hPa | 0 mm | - | - | - |
| 1787689118 | 40.56° C | 24% | 1013.5 hPa | 0 mm | - | - | - |
| 1787688814 | 39.44° C | 25% | 1013.6 hPa | 0 mm | - | - | - |
| 1787688510 | 39.44° C | 25% | 1013.7 hPa | 0 mm | - | - | - |
| 1787688210 | 39.44° C | 25% | 1013.7 hPa | 0 mm | - | - | - |
| 1787687905 | 38.89° C | 26% | 1013.8 hPa | 0 mm | - | - | - |
| 1787687605 | 39.44° C | 26% | 1013.8 hPa | 0 mm | - | - | - |
| 1787687301 | 39.44° C | 25% | 1013.8 hPa | 0 mm | - | - | - |
| 1787686997 | 38.33° C | 27% | 1013.9 hPa | 0 mm | - | - | - |
| 1787686693 | 37.78° C | 27% | 1014.1 hPa | 0 mm | - | - | - |
| 1787686393 | 38.89° C | 26% | 1014.1 hPa | 0 mm | - | - | - |
| 1787686089 | 38.89° C | 26% | 1014.2 hPa | 0 mm | - | - | - |
| 1787685784 | 38.89° C | 26% | 1014.1 hPa | 0 mm | - | - | - |
| 1787685479 | 38.89° C | 26% | 1014.3 hPa | 0 mm | - | - | - |
* Rain latest hour (hover to see other rain measurements)
** Current wind speed in m/s (hover to see current wind gust speed)